owner,sensor,date,latitude,longitude,sea_surface_height_above_sea_level,qcFlag 
COMPS,ioos:station:USF.COMPS:SHP:1,2011-05-01T00:00:00Z,30.0600,-84.2910,-0.593,1111122 
COMPS,ioos:station:USF.COMPS:SHP:1,2011-05-01T00:06:00Z,30.0600,-84.2910,-0.599,1111122 
COMPS,ioos:station:USF.COMPS:SHP:1,2011-05-01T00:12:00Z,30.0600,-84.2910,-0.601,1111122 
COMPS,ioos:station:USF.COMPS:SHP:1,2011-05-01T00:18:00Z,30.0600,-84.2910,-0.599,1111122 
COMPS,ioos:station:USF.COMPS:SHP:1,2011-05-01T00:24:00Z,30.0600,-84.2910,-0.598,1111122 
COMPS,ioos:station:USF.COMPS:SHP:1,2011-05-01T00:30:00Z,30.0600,-84.2910,-0.599,1111122 
COMPS,ioos:station:USF.COMPS:SHP:1,2011-05-01T00:36:00Z,30.0600,-84.2910,-0.601,1111122 
COMPS,ioos:station:USF.COMPS:SHP:1,2011-05-01T00:42:00Z,30.0600,-84.2910,-0.603,1111122 
COMPS,ioos:station:USF.COMPS:SHP:1,2011-05-01T00:48:00Z,30.0600,-84.2910,-0.604,1111122 
COMPS,ioos:station:USF.COMPS:SHP:1,2011-05-01T00:54:00Z,30.0600,-84.2910,-0.602,1111122 
COMPS,ioos:station:USF.COMPS:SHP:1,2011-05-01T01:00:00Z,30.0600,-84.2910,-0.598,1111122 
COMPS,ioos:station:USF.COMPS:SHP:1,2011-05-01T01:06:00Z,30.0600,-84.2910,-0.589,1111122 
COMPS,ioos:station:USF.COMPS:SHP:1,2011-05-01T01:12:00Z,30.0600,-84.2910,-0.577,1111122 
COMPS,ioos:station:USF.COMPS:SHP:1,2011-05-01T01:18:00Z,30.0600,-84.2910,-0.565,1111122 
COMPS,ioos:station:USF.COMPS:SHP:1,2011-05-01T01:24:00Z,30.0600,-84.2910,-0.555,1111122 
COMPS,ioos:station:USF.COMPS:SHP:1,2011-05-01T01:30:00Z,30.0600,-84.2910,-0.545,1111122 
COMPS,ioos:station:USF.COMPS:SHP:1,2011-05-01T01:36:00Z,30.0600,-84.2910,-0.534,1111122 
COMPS,ioos:station:USF.COMPS:SHP:1,2011-05-01T01:42:00Z,30.0600,-84.2910,-0.523,1111122 
COMPS,ioos:station:USF.COMPS:SHP:1,2011-05-01T01:48:00Z,30.0600,-84.2910,-0.513,1111122 
COMPS,ioos:station:USF.COMPS:SHP:1,2011-05-01T01:54:00Z,30.0600,-84.2910,-0.5,1111122 
COMPS,ioos:station:USF.COMPS:SHP:1,2011-05-01T02:00:00Z,30.0600,-84.2910,-0.486,1111122 
COMPS,ioos:station:USF.COMPS:SHP:1,2011-05-01T02:06:00Z,30.0600,-84.2910,-0.47,1111122 
COMPS,ioos:station:USF.COMPS:SHP:1,2011-05-01T02:12:00Z,30.0600,-84.2910,-0.451,1111122 
COMPS,ioos:station:USF.COMPS:SHP:1,2011-05-01T02:18:00Z,30.0600,-84.2910,-0.432,1111122 
COMPS,ioos:station:USF.COMPS:SHP:1,2011-05-01T02:24:00Z,30.0600,-84.2910,-0.413,1111122 
COMPS,ioos:station:USF.COMPS:SHP:1,2011-05-01T02:30:00Z,30.0600,-84.2910,-0.391,1111122 
COMPS,ioos:station:USF.COMPS:SHP:1,2011-05-01T02:36:00Z,30.0600,-84.2910,-0.368,1111122 
COMPS,ioos:station:USF.COMPS:SHP:1,2011-05-01T02:42:00Z,30.0600,-84.2910,-0.346,1111122 
COMPS,ioos:station:USF.COMPS:SHP:1,2011-05-01T02:48:00Z,30.0600,-84.2910,-0.322,1111122 
COMPS,ioos:station:USF.COMPS:SHP:1,2011-05-01T02:54:00Z,30.0600,-84.2910,-0.297,1111122 
COMPS,ioos:station:USF.COMPS:SHP:1,2011-05-01T03:00:00Z,30.0600,-84.2910,-0.272,1111122 
COMPS,ioos:station:USF.COMPS:SHP:1,2011-05-01T03:06:00Z,30.0600,-84.2910,-0.248,1111122 
COMPS,ioos:station:USF.COMPS:SHP:1,2011-05-01T03:12:00Z,30.0600,-84.2910,-0.223,1111122 
COMPS,ioos:station:USF.COMPS:SHP:1,2011-05-01T03:18:00Z,30.0600,-84.2910,-0.2,1111122 
COMPS,ioos:station:USF.COMPS:SHP:1,2011-05-01T03:24:00Z,30.0600,-84.2910,-0.177,1111122 
COMPS,ioos:station:USF.COMPS:SHP:1,2011-05-01T03:30:00Z,30.0600,-84.2910,-0.153,1111122 
COMPS,ioos:station:USF.COMPS:SHP:1,2011-05-01T03:36:00Z,30.0600,-84.2910,-0.128,1111122 
COMPS,ioos:station:USF.COMPS:SHP:1,2011-05-01T03:42:00Z,30.0600,-84.2910,-0.103,1111122 
COMPS,ioos:station:USF.COMPS:SHP:1,2011-05-01T03:48:00Z,30.0600,-84.2910,-0.083,1111122 
COMPS,ioos:station:USF.COMPS:SHP:1,2011-05-01T03:54:00Z,30.0600,-84.2910,-0.063,1111122 
COMPS,ioos:station:USF.COMPS:SHP:1,2011-05-01T04:00:00Z,30.0600,-84.2910,-0.041,1111122 
COMPS,ioos:station:USF.COMPS:SHP:1,2011-05-01T04:06:00Z,30.0600,-84.2910,-0.017,1111122 
COMPS,ioos:station:USF.COMPS:SHP:1,2011-05-01T04:12:00Z,30.0600,-84.2910,0.003,1111122 
COMPS,ioos:station:USF.COMPS:SHP:1,2011-05-01T04:18:00Z,30.0600,-84.2910,0.023,1111122 
COMPS,ioos:station:USF.COMPS:SHP:1,2011-05-01T04:24:00Z,30.0600,-84.2910,0.042,1111122 
COMPS,ioos:station:USF.COMPS:SHP:1,2011-05-01T04:30:00Z,30.0600,-84.2910,0.062,1111122 
COMPS,ioos:station:USF.COMPS:SHP:1,2011-05-01T04:36:00Z,30.0600,-84.2910,0.083,1111122 
COMPS,ioos:station:USF.COMPS:SHP:1,2011-05-01T04:42:00Z,30.0600,-84.2910,0.104,1111122 
COMPS,ioos:station:USF.COMPS:SHP:1,2011-05-01T04:48:00Z,30.0600,-84.2910,0.127,1111122 
COMPS,ioos:station:USF.COMPS:SHP:1,2011-05-01T04:54:00Z,30.0600,-84.2910,0.15,1111122 
COMPS,ioos:station:USF.COMPS:SHP:1,2011-05-01T05:00:00Z,30.0600,-84.2910,0.169,1111122 
COMPS,ioos:station:USF.COMPS:SHP:1,2011-05-01T05:06:00Z,30.0600,-84.2910,0.184,1111122 
COMPS,ioos:station:USF.COMPS:SHP:1,2011-05-01T05:12:00Z,30.0600,-84.2910,0.207,1111122 
COMPS,ioos:station:USF.COMPS:SHP:1,2011-05-01T05:18:00Z,30.0600,-84.2910,0.237,1111122 
COMPS,ioos:station:USF.COMPS:SHP:1,2011-05-01T05:24:00Z,30.0600,-84.2910,0.259,1111122 
COMPS,ioos:station:USF.COMPS:SHP:1,2011-05-01T05:30:00Z,30.0600,-84.2910,0.284,1111122 
COMPS,ioos:station:USF.COMPS:SHP:1,2011-05-01T05:36:00Z,30.0600,-84.2910,0.313,1111122 
COMPS,ioos:station:USF.COMPS:SHP:1,2011-05-01T05:42:00Z,30.0600,-84.2910,0.344,1111122 
COMPS,ioos:station:USF.COMPS:SHP:1,2011-05-01T05:48:00Z,30.0600,-84.2910,0.372,1111122 
COMPS,ioos:station:USF.COMPS:SHP:1,2011-05-01T05:54:00Z,30.0600,-84.2910,0.404,1111122 
COMPS,ioos:station:USF.COMPS:SHP:1,2011-05-01T06:00:00Z,30.0600,-84.2910,0.428,1111122 
COMPS,ioos:station:USF.COMPS:SHP:1,2011-05-01T06:06:00Z,30.0600,-84.2910,0.445,1111122 
COMPS,ioos:station:USF.COMPS:SHP:1,2011-05-01T06:12:00Z,30.0600,-84.2910,0.466,1111122 
COMPS,ioos:station:USF.COMPS:SHP:1,2011-05-01T06:18:00Z,30.0600,-84.2910,0.482,1111122 
COMPS,ioos:station:USF.COMPS:SHP:1,2011-05-01T06:24:00Z,30.0600,-84.2910,0.489,1111122 
COMPS,ioos:station:USF.COMPS:SHP:1,2011-05-01T06:30:00Z,30.0600,-84.2910,0.5,1111122 
COMPS,ioos:station:USF.COMPS:SHP:1,2011-05-01T06:36:00Z,30.0600,-84.2910,0.515,1111122 
COMPS,ioos:station:USF.COMPS:SHP:1,2011-05-01T06:42:00Z,30.0600,-84.2910,0.531,1111122 
COMPS,ioos:station:USF.COMPS:SHP:1,2011-05-01T06:48:00Z,30.0600,-84.2910,0.542,1111122 
COMPS,ioos:station:USF.COMPS:SHP:1,2011-05-01T06:54:00Z,30.0600,-84.2910,0.548,1111122 
COMPS,ioos:station:USF.COMPS:SHP:1,2011-05-01T07:00:00Z,30.0600,-84.2910,0.554,1111122 
COMPS,ioos:station:USF.COMPS:SHP:1,2011-05-01T07:06:00Z,30.0600,-84.2910,0.56,1111122 
COMPS,ioos:station:USF.COMPS:SHP:1,2011-05-01T07:12:00Z,30.0600,-84.2910,0.563,1111122 
COMPS,ioos:station:USF.COMPS:SHP:1,2011-05-01T07:18:00Z,30.0600,-84.2910,0.554,1111122 
COMPS,ioos:station:USF.COMPS:SHP:1,2011-05-01T07:24:00Z,30.0600,-84.2910,0.547,1111122 
COMPS,ioos:station:USF.COMPS:SHP:1,2011-05-01T07:30:00Z,30.0600,-84.2910,0.546,1111122 
COMPS,ioos:station:USF.COMPS:SHP:1,2011-05-01T07:36:00Z,30.0600,-84.2910,0.541,1111122 
COMPS,ioos:station:USF.COMPS:SHP:1,2011-05-01T07:42:00Z,30.0600,-84.2910,0.525,1111122 
COMPS,ioos:station:USF.COMPS:SHP:1,2011-05-01T07:48:00Z,30.0600,-84.2910,0.515,1111122 
COMPS,ioos:station:USF.COMPS:SHP:1,2011-05-01T07:54:00Z,30.0600,-84.2910,0.506,1111122 
COMPS,ioos:station:USF.COMPS:SHP:1,2011-05-01T08:00:00Z,30.0600,-84.2910,0.5,1111122 
COMPS,ioos:station:USF.COMPS:SHP:1,2011-05-01T08:06:00Z,30.0600,-84.2910,0.492,1111122 
COMPS,ioos:station:USF.COMPS:SHP:1,2011-05-01T08:12:00Z,30.0600,-84.2910,0.482,1111122 
COMPS,ioos:station:USF.COMPS:SHP:1,2011-05-01T08:18:00Z,30.0600,-84.2910,0.47,1111122 
COMPS,ioos:station:USF.COMPS:SHP:1,2011-05-01T08:24:00Z,30.0600,-84.2910,0.462,1111122 
COMPS,ioos:station:USF.COMPS:SHP:1,2011-05-01T08:30:00Z,30.0600,-84.2910,0.457,1111122 
COMPS,ioos:station:USF.COMPS:SHP:1,2011-05-01T08:36:00Z,30.0600,-84.2910,0.44,1111122 
COMPS,ioos:station:USF.COMPS:SHP:1,2011-05-01T08:42:00Z,30.0600,-84.2910,0.421,1111122 
COMPS,ioos:station:USF.COMPS:SHP:1,2011-05-01T08:48:00Z,30.0600,-84.2910,0.406,1111122 
COMPS,ioos:station:USF.COMPS:SHP:1,2011-05-01T08:54:00Z,30.0600,-84.2910,0.391,1111122 
COMPS,ioos:station:USF.COMPS:SHP:1,2011-05-01T09:00:00Z,30.0600,-84.2910,0.372,1111122 
COMPS,ioos:station:USF.COMPS:SHP:1,2011-05-01T09:06:00Z,30.0600,-84.2910,0.354,1111122 
COMPS,ioos:station:USF.COMPS:SHP:1,2011-05-01T09:12:00Z,30.0600,-84.2910,0.339,1111122 
COMPS,ioos:station:USF.COMPS:SHP:1,2011-05-01T09:18:00Z,30.0600,-84.2910,0.321,1111122 
COMPS,ioos:station:USF.COMPS:SHP:1,2011-05-01T09:24:00Z,30.0600,-84.2910,0.298,1111122 
COMPS,ioos:station:USF.COMPS:SHP:1,2011-05-01T09:30:00Z,30.0600,-84.2910,0.282,1111122 
COMPS,ioos:station:USF.COMPS:SHP:1,2011-05-01T09:36:00Z,30.0600,-84.2910,0.264,1111122 
COMPS,ioos:station:USF.COMPS:SHP:1,2011-05-01T09:42:00Z,30.0600,-84.2910,0.236,1111122 
COMPS,ioos:station:USF.COMPS:SHP:1,2011-05-01T09:48:00Z,30.0600,-84.2910,0.216,1111122 
COMPS,ioos:station:USF.COMPS:SHP:1,2011-05-01T09:54:00Z,30.0600,-84.2910,0.201,1111122 
COMPS,ioos:station:USF.COMPS:SHP:1,2011-05-01T10:00:00Z,30.0600,-84.2910,0.181,1111122 
COMPS,ioos:station:USF.COMPS:SHP:1,2011-05-01T10:06:00Z,30.0600,-84.2910,0.155,1111122 
COMPS,ioos:station:USF.COMPS:SHP:1,2011-05-01T10:12:00Z,30.0600,-84.2910,0.139,1111122 
COMPS,ioos:station:USF.COMPS:SHP:1,2011-05-01T10:18:00Z,30.0600,-84.2910,0.121,1111122 
COMPS,ioos:station:USF.COMPS:SHP:1,2011-05-01T10:24:00Z,30.0600,-84.2910,0.098,1111122 
COMPS,ioos:station:USF.COMPS:SHP:1,2011-05-01T10:30:00Z,30.0600,-84.2910,0.078,1111122 
COMPS,ioos:station:USF.COMPS:SHP:1,2011-05-01T10:36:00Z,30.0600,-84.2910,0.055,1111122 
COMPS,ioos:station:USF.COMPS:SHP:1,2011-05-01T10:42:00Z,30.0600,-84.2910,0.034,1111122 
COMPS,ioos:station:USF.COMPS:SHP:1,2011-05-01T10:48:00Z,30.0600,-84.2910,0.015,1111122 
COMPS,ioos:station:USF.COMPS:SHP:1,2011-05-01T10:54:00Z,30.0600,-84.2910,-0.001,1111122 
COMPS,ioos:station:USF.COMPS:SHP:1,2011-05-01T11:00:00Z,30.0600,-84.2910,-0.019,1111122 
COMPS,ioos:station:USF.COMPS:SHP:1,2011-05-01T11:06:00Z,30.0600,-84.2910,-0.036,1111122 
COMPS,ioos:station:USF.COMPS:SHP:1,2011-05-01T11:12:00Z,30.0600,-84.2910,-0.054,1111122 
COMPS,ioos:station:USF.COMPS:SHP:1,2011-05-01T11:18:00Z,30.0600,-84.2910,-0.067,1111122 
COMPS,ioos:station:USF.COMPS:SHP:1,2011-05-01T11:24:00Z,30.0600,-84.2910,-0.078,1111122 
COMPS,ioos:station:USF.COMPS:SHP:1,2011-05-01T11:30:00Z,30.0600,-84.2910,-0.088,1111122 
COMPS,ioos:station:USF.COMPS:SHP:1,2011-05-01T11:36:00Z,30.0600,-84.2910,-0.097,1111122 
COMPS,ioos:station:USF.COMPS:SHP:1,2011-05-01T11:42:00Z,30.0600,-84.2910,-0.107,1111122 
COMPS,ioos:station:USF.COMPS:SHP:1,2011-05-01T11:48:00Z,30.0600,-84.2910,-0.117,1111122 
COMPS,ioos:station:USF.COMPS:SHP:1,2011-05-01T11:54:00Z,30.0600,-84.2910,-0.129,1111122 
COMPS,ioos:station:USF.COMPS:SHP:1,2011-05-01T12:00:00Z,30.0600,-84.2910,-0.138,1111122 
COMPS,ioos:station:USF.COMPS:SHP:1,2011-05-01T12:06:00Z,30.0600,-84.2910,-0.144,1111122 
COMPS,ioos:station:USF.COMPS:SHP:1,2011-05-01T12:12:00Z,30.0600,-84.2910,-0.147,1111122 
COMPS,ioos:station:USF.COMPS:SHP:1,2011-05-01T12:18:00Z,30.0600,-84.2910,-0.149,1111122 
COMPS,ioos:station:USF.COMPS:SHP:1,2011-05-01T12:24:00Z,30.0600,-84.2910,-0.152,1111122 
COMPS,ioos:station:USF.COMPS:SHP:1,2011-05-01T12:30:00Z,30.0600,-84.2910,-0.155,1111122 
COMPS,ioos:station:USF.COMPS:SHP:1,2011-05-01T12:36:00Z,30.0600,-84.2910,-0.16,1111122 
COMPS,ioos:station:USF.COMPS:SHP:1,2011-05-01T12:42:00Z,30.0600,-84.2910,-0.161,1111122 
COMPS,ioos:station:USF.COMPS:SHP:1,2011-05-01T12:48:00Z,30.0600,-84.2910,-0.164,1111122 
COMPS,ioos:station:USF.COMPS:SHP:1,2011-05-01T12:54:00Z,30.0600,-84.2910,-0.169,1111122 
COMPS,ioos:station:USF.COMPS:SHP:1,2011-05-01T13:00:00Z,30.0600,-84.2910,-0.169,1111122 
COMPS,ioos:station:USF.COMPS:SHP:1,2011-05-01T13:06:00Z,30.0600,-84.2910,-0.163,1111122 
COMPS,ioos:station:USF.COMPS:SHP:1,2011-05-01T13:12:00Z,30.0600,-84.2910,-0.15,1111122 
COMPS,ioos:station:USF.COMPS:SHP:1,2011-05-01T13:18:00Z,30.0600,-84.2910,-0.137,1111122 
COMPS,ioos:station:USF.COMPS:SHP:1,2011-05-01T13:24:00Z,30.0600,-84.2910,-0.126,1111122 
COMPS,ioos:station:USF.COMPS:SHP:1,2011-05-01T13:30:00Z,30.0600,-84.2910,-0.116,1111122 
COMPS,ioos:station:USF.COMPS:SHP:1,2011-05-01T13:36:00Z,30.0600,-84.2910,-0.108,1111122 
COMPS,ioos:station:USF.COMPS:SHP:1,2011-05-01T13:42:00Z,30.0600,-84.2910,-0.098,1111122 
COMPS,ioos:station:USF.COMPS:SHP:1,2011-05-01T13:48:00Z,30.0600,-84.2910,-0.085,1111122 
COMPS,ioos:station:USF.COMPS:SHP:1,2011-05-01T13:54:00Z,30.0600,-84.2910,-0.066,1111122 
COMPS,ioos:station:USF.COMPS:SHP:1,2011-05-01T14:00:00Z,30.0600,-84.2910,-0.048,1111122 
COMPS,ioos:station:USF.COMPS:SHP:1,2011-05-01T14:06:00Z,30.0600,-84.2910,-0.038,1111122 
COMPS,ioos:station:USF.COMPS:SHP:1,2011-05-01T14:12:00Z,30.0600,-84.2910,-0.023,1111122 
COMPS,ioos:station:USF.COMPS:SHP:1,2011-05-01T14:18:00Z,30.0600,-84.2910,-0.007,1111122 
COMPS,ioos:station:USF.COMPS:SHP:1,2011-05-01T14:24:00Z,30.0600,-84.2910,0.008,1111122 
COMPS,ioos:station:USF.COMPS:SHP:1,2011-05-01T14:30:00Z,30.0600,-84.2910,0.029,1111122 
COMPS,ioos:station:USF.COMPS:SHP:1,2011-05-01T14:36:00Z,30.0600,-84.2910,0.055,1111122 
COMPS,ioos:station:USF.COMPS:SHP:1,2011-05-01T14:42:00Z,30.0600,-84.2910,0.072,1111122 
COMPS,ioos:station:USF.COMPS:SHP:1,2011-05-01T14:48:00Z,30.0600,-84.2910,0.088,1111122 
COMPS,ioos:station:USF.COMPS:SHP:1,2011-05-01T14:54:00Z,30.0600,-84.2910,0.108,1111122 
COMPS,ioos:station:USF.COMPS:SHP:1,2011-05-01T15:00:00Z,30.0600,-84.2910,0.13,1111122 
COMPS,ioos:station:USF.COMPS:SHP:1,2011-05-01T15:06:00Z,30.0600,-84.2910,0.15,1111122 
COMPS,ioos:station:USF.COMPS:SHP:1,2011-05-01T15:12:00Z,30.0600,-84.2910,0.174,1111122 
COMPS,ioos:station:USF.COMPS:SHP:1,2011-05-01T15:18:00Z,30.0600,-84.2910,0.195,1111122 
COMPS,ioos:station:USF.COMPS:SHP:1,2011-05-01T15:24:00Z,30.0600,-84.2910,0.213,1111122 
COMPS,ioos:station:USF.COMPS:SHP:1,2011-05-01T15:30:00Z,30.0600,-84.2910,0.238,1111122 
COMPS,ioos:station:USF.COMPS:SHP:1,2011-05-01T15:36:00Z,30.0600,-84.2910,0.262,1111122 
COMPS,ioos:station:USF.COMPS:SHP:1,2011-05-01T15:42:00Z,30.0600,-84.2910,0.287,1111122 
COMPS,ioos:station:USF.COMPS:SHP:1,2011-05-01T15:48:00Z,30.0600,-84.2910,0.312,1111122 
COMPS,ioos:station:USF.COMPS:SHP:1,2011-05-01T15:54:00Z,30.0600,-84.2910,0.338,1111122 
COMPS,ioos:station:USF.COMPS:SHP:1,2011-05-01T16:00:00Z,30.0600,-84.2910,0.364,1111122 
COMPS,ioos:station:USF.COMPS:SHP:1,2011-05-01T16:06:00Z,30.0600,-84.2910,0.383,1111122 
COMPS,ioos:station:USF.COMPS:SHP:1,2011-05-01T16:12:00Z,30.0600,-84.2910,0.397,1111122 
COMPS,ioos:station:USF.COMPS:SHP:1,2011-05-01T16:18:00Z,30.0600,-84.2910,0.412,1111122 
COMPS,ioos:station:USF.COMPS:SHP:1,2011-05-01T16:24:00Z,30.0600,-84.2910,0.427,1111122 
COMPS,ioos:station:USF.COMPS:SHP:1,2011-05-01T16:30:00Z,30.0600,-84.2910,0.443,1111122 
COMPS,ioos:station:USF.COMPS:SHP:1,2011-05-01T16:36:00Z,30.0600,-84.2910,0.45,1111122 
COMPS,ioos:station:USF.COMPS:SHP:1,2011-05-01T16:42:00Z,30.0600,-84.2910,0.453,1111122 
COMPS,ioos:station:USF.COMPS:SHP:1,2011-05-01T16:48:00Z,30.0600,-84.2910,0.467,1111122 
COMPS,ioos:station:USF.COMPS:SHP:1,2011-05-01T16:54:00Z,30.0600,-84.2910,0.483,1111122 
COMPS,ioos:station:USF.COMPS:SHP:1,2011-05-01T17:00:00Z,30.0600,-84.2910,0.499,1111122 
COMPS,ioos:station:USF.COMPS:SHP:1,2011-05-01T17:06:00Z,30.0600,-84.2910,0.515,1111122 
COMPS,ioos:station:USF.COMPS:SHP:1,2011-05-01T17:12:00Z,30.0600,-84.2910,0.523,1111122 
COMPS,ioos:station:USF.COMPS:SHP:1,2011-05-01T17:18:00Z,30.0600,-84.2910,0.532,1111122 
COMPS,ioos:station:USF.COMPS:SHP:1,2011-05-01T17:24:00Z,30.0600,-84.2910,0.541,1111122 
COMPS,ioos:station:USF.COMPS:SHP:1,2011-05-01T17:30:00Z,30.0600,-84.2910,0.542,1111122 
COMPS,ioos:station:USF.COMPS:SHP:1,2011-05-01T17:36:00Z,30.0600,-84.2910,0.553,1111122 
COMPS,ioos:station:USF.COMPS:SHP:1,2011-05-01T17:42:00Z,30.0600,-84.2910,0.564,1111122 
COMPS,ioos:station:USF.COMPS:SHP:1,2011-05-01T17:48:00Z,30.0600,-84.2910,0.563,1111122 
COMPS,ioos:station:USF.COMPS:SHP:1,2011-05-01T17:54:00Z,30.0600,-84.2910,0.562,1111122 
COMPS,ioos:station:USF.COMPS:SHP:1,2011-05-01T18:00:00Z,30.0600,-84.2910,0.562,1111122 
COMPS,ioos:station:USF.COMPS:SHP:1,2011-05-01T18:06:00Z,30.0600,-84.2910,0.562,1111122 
COMPS,ioos:station:USF.COMPS:SHP:1,2011-05-01T18:12:00Z,30.0600,-84.2910,0.56,1111122 
COMPS,ioos:station:USF.COMPS:SHP:1,2011-05-01T18:18:00Z,30.0600,-84.2910,0.56,1111122 
COMPS,ioos:station:USF.COMPS:SHP:1,2011-05-01T18:24:00Z,30.0600,-84.2910,0.552,1111122 
COMPS,ioos:station:USF.COMPS:SHP:1,2011-05-01T18:30:00Z,30.0600,-84.2910,0.544,1111122 
COMPS,ioos:station:USF.COMPS:SHP:1,2011-05-01T18:36:00Z,30.0600,-84.2910,0.538,1111122 
COMPS,ioos:station:USF.COMPS:SHP:1,2011-05-01T18:42:00Z,30.0600,-84.2910,0.531,1111122 
COMPS,ioos:station:USF.COMPS:SHP:1,2011-05-01T18:48:00Z,30.0600,-84.2910,0.522,1111122 
COMPS,ioos:station:USF.COMPS:SHP:1,2011-05-01T18:54:00Z,30.0600,-84.2910,0.506,1111122 
COMPS,ioos:station:USF.COMPS:SHP:1,2011-05-01T19:00:00Z,30.0600,-84.2910,0.5,1111122 
COMPS,ioos:station:USF.COMPS:SHP:1,2011-05-01T19:06:00Z,30.0600,-84.2910,0.486,1111122 
COMPS,ioos:station:USF.COMPS:SHP:1,2011-05-01T19:12:00Z,30.0600,-84.2910,0.459,1111122 
COMPS,ioos:station:USF.COMPS:SHP:1,2011-05-01T19:18:00Z,30.0600,-84.2910,0.444,1111122 
COMPS,ioos:station:USF.COMPS:SHP:1,2011-05-01T19:24:00Z,30.0600,-84.2910,0.434,1111122 
COMPS,ioos:station:USF.COMPS:SHP:1,2011-05-01T19:30:00Z,30.0600,-84.2910,0.415,1111122 
COMPS,ioos:station:USF.COMPS:SHP:1,2011-05-01T19:36:00Z,30.0600,-84.2910,0.395,1111122 
COMPS,ioos:station:USF.COMPS:SHP:1,2011-05-01T19:42:00Z,30.0600,-84.2910,0.375,1111122 
COMPS,ioos:station:USF.COMPS:SHP:1,2011-05-01T19:48:00Z,30.0600,-84.2910,0.349,1111122 
COMPS,ioos:station:USF.COMPS:SHP:1,2011-05-01T19:54:00Z,30.0600,-84.2910,0.324,1111122 
COMPS,ioos:station:USF.COMPS:SHP:1,2011-05-01T20:00:00Z,30.0600,-84.2910,0.305,1111122 
COMPS,ioos:station:USF.COMPS:SHP:1,2011-05-01T20:06:00Z,30.0600,-84.2910,0.283,1111122 
COMPS,ioos:station:USF.COMPS:SHP:1,2011-05-01T20:12:00Z,30.0600,-84.2910,0.259,1111122 
COMPS,ioos:station:USF.COMPS:SHP:1,2011-05-01T20:18:00Z,30.0600,-84.2910,0.231,1111122 
COMPS,ioos:station:USF.COMPS:SHP:1,2011-05-01T20:24:00Z,30.0600,-84.2910,0.203,1111122 
COMPS,ioos:station:USF.COMPS:SHP:1,2011-05-01T20:30:00Z,30.0600,-84.2910,0.176,1111122 
COMPS,ioos:station:USF.COMPS:SHP:1,2011-05-01T20:36:00Z,30.0600,-84.2910,0.149,1111122 
COMPS,ioos:station:USF.COMPS:SHP:1,2011-05-01T20:42:00Z,30.0600,-84.2910,0.122,1111122 
COMPS,ioos:station:USF.COMPS:SHP:1,2011-05-01T20:48:00Z,30.0600,-84.2910,0.096,1111122 
COMPS,ioos:station:USF.COMPS:SHP:1,2011-05-01T20:54:00Z,30.0600,-84.2910,0.07,1111122 
COMPS,ioos:station:USF.COMPS:SHP:1,2011-05-01T21:00:00Z,30.0600,-84.2910,0.042,1111122 
COMPS,ioos:station:USF.COMPS:SHP:1,2011-05-01T21:06:00Z,30.0600,-84.2910,0.015,1111122 
COMPS,ioos:station:USF.COMPS:SHP:1,2011-05-01T21:12:00Z,30.0600,-84.2910,-0.011,1111122 
COMPS,ioos:station:USF.COMPS:SHP:1,2011-05-01T21:18:00Z,30.0600,-84.2910,-0.039,1111122 
COMPS,ioos:station:USF.COMPS:SHP:1,2011-05-01T21:24:00Z,30.0600,-84.2910,-0.067,1111122 
COMPS,ioos:station:USF.COMPS:SHP:1,2011-05-01T21:30:00Z,30.0600,-84.2910,-0.093,1111122 
COMPS,ioos:station:USF.COMPS:SHP:1,2011-05-01T21:36:00Z,30.0600,-84.2910,-0.118,1111122 
COMPS,ioos:station:USF.COMPS:SHP:1,2011-05-01T21:42:00Z,30.0600,-84.2910,-0.142,1111122 
COMPS,ioos:station:USF.COMPS:SHP:1,2011-05-01T21:48:00Z,30.0600,-84.2910,-0.168,1111122 
COMPS,ioos:station:USF.COMPS:SHP:1,2011-05-01T21:54:00Z,30.0600,-84.2910,-0.195,1111122 
COMPS,ioos:station:USF.COMPS:SHP:1,2011-05-01T22:00:00Z,30.0600,-84.2910,-0.223,1111122 
COMPS,ioos:station:USF.COMPS:SHP:1,2011-05-01T22:06:00Z,30.0600,-84.2910,-0.245,1111122 
COMPS,ioos:station:USF.COMPS:SHP:1,2011-05-01T22:12:00Z,30.0600,-84.2910,-0.269,1111122 
COMPS,ioos:station:USF.COMPS:SHP:1,2011-05-01T22:18:00Z,30.0600,-84.2910,-0.294,1111122 
COMPS,ioos:station:USF.COMPS:SHP:1,2011-05-01T22:24:00Z,30.0600,-84.2910,-0.316,1111122 
COMPS,ioos:station:USF.COMPS:SHP:1,2011-05-01T22:30:00Z,30.0600,-84.2910,-0.337,1111122 
COMPS,ioos:station:USF.COMPS:SHP:1,2011-05-01T22:36:00Z,30.0600,-84.2910,-0.36,1111122 
COMPS,ioos:station:USF.COMPS:SHP:1,2011-05-01T22:42:00Z,30.0600,-84.2910,-0.38,1111122 
COMPS,ioos:station:USF.COMPS:SHP:1,2011-05-01T22:48:00Z,30.0600,-84.2910,-0.4,1111122 
COMPS,ioos:station:USF.COMPS:SHP:1,2011-05-01T22:54:00Z,30.0600,-84.2910,-0.419,1111122 
COMPS,ioos:station:USF.COMPS:SHP:1,2011-05-01T23:00:00Z,30.0600,-84.2910,-0.438,1111122 
COMPS,ioos:station:USF.COMPS:SHP:1,2011-05-01T23:06:00Z,30.0600,-84.2910,-0.456,1111122 
COMPS,ioos:station:USF.COMPS:SHP:1,2011-05-01T23:12:00Z,30.0600,-84.2910,-0.475,1111122 
COMPS,ioos:station:USF.COMPS:SHP:1,2011-05-01T23:18:00Z,30.0600,-84.2910,-0.494,1111122 
COMPS,ioos:station:USF.COMPS:SHP:1,2011-05-01T23:24:00Z,30.0600,-84.2910,-0.513,1111122 
COMPS,ioos:station:USF.COMPS:SHP:1,2011-05-01T23:30:00Z,30.0600,-84.2910,-0.532,1111122 
COMPS,ioos:station:USF.COMPS:SHP:1,2011-05-01T23:36:00Z,30.0600,-84.2910,-0.55,1111122 
COMPS,ioos:station:USF.COMPS:SHP:1,2011-05-01T23:42:00Z,30.0600,-84.2910,-0.567,1111122 
COMPS,ioos:station:USF.COMPS:SHP:1,2011-05-01T23:48:00Z,30.0600,-84.2910,-0.585,1111122 
COMPS,ioos:station:USF.COMPS:SHP:1,2011-05-01T23:54:00Z,30.0600,-84.2910,-0.604,1111122 
COMPS,ioos:station:USF.COMPS:SHP:1,2011-05-02T00:00:00Z,30.0600,-84.2910,-0.619,1111122 
COMPS,ioos:station:USF.COMPS:SHP:1,2011-05-02T00:06:00Z,30.0600,-84.2910,-0.632,1111122 
COMPS,ioos:station:USF.COMPS:SHP:1,2011-05-02T00:12:00Z,30.0600,-84.2910,-0.644,1111122 
COMPS,ioos:station:USF.COMPS:SHP:1,2011-05-02T00:18:00Z,30.0600,-84.2910,-0.656,1111122 
COMPS,ioos:station:USF.COMPS:SHP:1,2011-05-02T00:24:00Z,30.0600,-84.2910,-0.665,1111122 
COMPS,ioos:station:USF.COMPS:SHP:1,2011-05-02T00:30:00Z,30.0600,-84.2910,-0.669,1111122 
COMPS,ioos:station:USF.COMPS:SHP:1,2011-05-02T00:36:00Z,30.0600,-84.2910,-0.673,1111122 
COMPS,ioos:station:USF.COMPS:SHP:1,2011-05-02T00:42:00Z,30.0600,-84.2910,-0.678,1111122 
COMPS,ioos:station:USF.COMPS:SHP:1,2011-05-02T00:48:00Z,30.0600,-84.2910,-0.681,1111122 
COMPS,ioos:station:USF.COMPS:SHP:1,2011-05-02T00:54:00Z,30.0600,-84.2910,-0.677,1111122 
COMPS,ioos:station:USF.COMPS:SHP:1,2011-05-02T01:00:00Z,30.0600,-84.2910,-0.67,1111122 
COMPS,ioos:station:USF.COMPS:SHP:1,2011-05-02T01:06:00Z,30.0600,-84.2910,-0.667,1111122 
COMPS,ioos:station:USF.COMPS:SHP:1,2011-05-02T01:12:00Z,30.0600,-84.2910,-0.667,1111122 
COMPS,ioos:station:USF.COMPS:SHP:1,2011-05-02T01:18:00Z,30.0600,-84.2910,-0.664,1111122 
COMPS,ioos:station:USF.COMPS:SHP:1,2011-05-02T01:24:00Z,30.0600,-84.2910,-0.657,1111122 
COMPS,ioos:station:USF.COMPS:SHP:1,2011-05-02T01:30:00Z,30.0600,-84.2910,-0.651,1111122 
COMPS,ioos:station:USF.COMPS:SHP:1,2011-05-02T01:36:00Z,30.0600,-84.2910,-0.644,1111122 
COMPS,ioos:station:USF.COMPS:SHP:1,2011-05-02T01:42:00Z,30.0600,-84.2910,-0.631,1111122 
COMPS,ioos:station:USF.COMPS:SHP:1,2011-05-02T01:48:00Z,30.0600,-84.2910,-0.616,1111122 
COMPS,ioos:station:USF.COMPS:SHP:1,2011-05-02T01:54:00Z,30.0600,-84.2910,-0.601,1111122 
COMPS,ioos:station:USF.COMPS:SHP:1,2011-05-02T02:00:00Z,30.0600,-84.2910,-0.587,1111122 
COMPS,ioos:station:USF.COMPS:SHP:1,2011-05-02T02:06:00Z,30.0600,-84.2910,-0.571,1111122 
COMPS,ioos:station:USF.COMPS:SHP:1,2011-05-02T02:12:00Z,30.0600,-84.2910,-0.553,1111122 
COMPS,ioos:station:USF.COMPS:SHP:1,2011-05-02T02:18:00Z,30.0600,-84.2910,-0.536,1111122 
COMPS,ioos:station:USF.COMPS:SHP:1,2011-05-02T02:24:00Z,30.0600,-84.2910,-0.52,1111122 
COMPS,ioos:station:USF.COMPS:SHP:1,2011-05-02T02:30:00Z,30.0600,-84.2910,-0.503,1111122 
COMPS,ioos:station:USF.COMPS:SHP:1,2011-05-02T02:36:00Z,30.0600,-84.2910,-0.482,1111122 
COMPS,ioos:station:USF.COMPS:SHP:1,2011-05-02T02:42:00Z,30.0600,-84.2910,-0.463,1111122 
COMPS,ioos:station:USF.COMPS:SHP:1,2011-05-02T02:48:00Z,30.0600,-84.2910,-0.443,1111122 
COMPS,ioos:station:USF.COMPS:SHP:1,2011-05-02T02:54:00Z,30.0600,-84.2910,-0.42,1111122 